This is the latest recevied weather packets stored in our database for station/object IZ1GCT. If no packets are shown the sender has not sent any weather packets the latest 10 day(s).
| Time | Temp. | Humidity | Pressure | Rain* | Wind** | Luminosity | Snow |
|---|---|---|---|---|---|---|---|
| 1777750853 | 14.44° C | 59% | 1024.2 hPa | 0 mm | - | - | - |
| 1777750552 | 14.44° C | 60% | 1024.2 hPa | 0 mm | - | - | - |
| 1777750252 | 14.44° C | 60% | 1024.2 hPa | 0 mm | - | - | - |
| 1777749953 | 14.44° C | 60% | 1024.1 hPa | 0 mm | - | - | - |
| 1777749652 | 14.44° C | 59% | 1024.1 hPa | 0 mm | - | - | - |
| 1777749353 | 15° C | 60% | 1024 hPa | 0 mm | - | - | - |
| 1777749053 | 15° C | 59% | 1023.9 hPa | 0 mm | - | - | - |
| 1777748752 | 15° C | 58% | 1023.9 hPa | 0 mm | - | - | - |
| 1777748453 | 15.56° C | 55% | 1023.7 hPa | 0 mm | - | - | - |
| 1777748153 | 15.56° C | 53% | 1023.6 hPa | 0 mm | - | - | - |
| 1777747853 | 16.11° C | 53% | 1023.7 hPa | 0 mm | - | - | - |
| 1777747553 | 16.11° C | 53% | 1023.6 hPa | 0 mm | - | - | - |
| 1777747252 | 16.67° C | 52% | 1023.6 hPa | 0 mm | - | - | - |
| 1777746953 | 16.67° C | 51% | 1023.5 hPa | 0 mm | - | - | - |
| 1777746653 | 16.67° C | 51% | 1023.5 hPa | 0 mm | - | - | - |
| 1777746352 | 17.22° C | 51% | 1023.5 hPa | 0 mm | - | - | - |
| 1777746052 | 17.22° C | 51% | 1023.5 hPa | 0 mm | - | - | - |
| 1777745753 | 17.22° C | 50% | 1023.4 hPa | 0 mm | - | - | - |
| 1777745452 | 17.78° C | 46% | 1023.4 hPa | 0 mm | - | - | - |
| 1777745152 | 17.78° C | 45% | 1023.4 hPa | 0 mm | - | - | - |
| 1777744853 | 18.33° C | 42% | 1023.3 hPa | 0 mm | - | - | - |
| 1777744553 | 18.33° C | 42% | 1023.3 hPa | 0 mm | - | - | - |
| 1777744253 | 18.33° C | 41% | 1023.3 hPa | 0 mm | - | - | - |
| 1777743953 | 18.89° C | 40% | 1023.2 hPa | 0 mm | - | - | - |
| 1777743652 | 18.89° C | 39% | 1023.2 hPa | 0 mm | - | - | - |
* Rain latest hour (hover to see other rain measurements)
** Current wind speed in m/s (hover to see current wind gust speed)